Location: downtown San Diego
(32.7310°N, 117.1990°W)
Time: 21:07:41
(UTC-08:00)

Cosmos 1655 Rocket - Pass Details

Date: 14 June 2018
Orbit: 970 x 1007 km, 82.9° (Epoch: 17 November)

Event Time Altitude Azimuth Distance (km) Brightness Sun altitude
Rises 21:40:05 0° 350° (N) 3,698 8.0 -18.1°
Reaches altitude 10° 21:42:38 10° 347° (NNW) 2,741 7.2 -18.4°
Maximum altitude 21:48:50 65° 268° (W) 1,066 4.3 -19.4°
Enters shadow 21:53:41 17° 190° (S) 2,241 5.5 -20.0°
